Weather observations for the past three days for
Mercury, Desert Rock Airport
Metric (Imperial)
Date Time (pdt) Wind (kph) Vis. (km) Weather Sky Cond. Temperature (ºC) Relative Humidity Wind Chill (°C) Heat Index (°C) Pressure Precipitation (cm)
Air Dwpt 6 hour altimeter (cm) sea level (mb) 1 hr 3 hr 6 hr
Max. Min.
05 02:53 S 19 16.09 Fair CLR 22.2 3.9 30% 76.05 1008.9
05 01:53 S 15 16.09 Fair CLR 22.8 2.8 27% 76.05 1008.8
05 00:53 SE 7 16.09 Fair CLR 21.7 2.8 29% 76.05 1009.0
04 23:53 SE 9 16.09 Fair CLR 22.2 1.7 26% 76.02 1008.6
04 22:53 S 11 16.09 Fair CLR 23.9 2.8 31.1 23.9 25% 25 75.97 1008.1
04 21:53 S 20 G 30 16.09 Fair CLR 25.6 -0.6 18% 25 75.95 1007.5
04 20:53 SE 22 G 37 16.09 Fair CLR 27.2 0 17% 26 75.9 1007.0
04 19:53 SE 22 16.09 Fair CLR 27.8 0.6 17% 27 75.87 1006.6
04 18:53 S 26 G 41 16.09 Fair CLR 28.9 0 15% 27 75.87 1006.8
04 17:53 S 31 G 46 16.09 Fair CLR 30 0 14% 28 75.87 1006.6
04 16:53 SE 33 G 54 16.09 Fair and Breezy CLR 31.1 0.6 32.2 29.4 14% 29 75.87 1006.4
04 15:53 S 30 G 50 16.09 Fair CLR 32.2 -0.6 12% 30 75.84 1006.1
04 14:53 SE 35 G 52 16.09 Fair and Breezy CLR 31.7 -0.6 12% 30 75.9 1006.8
04 13:53 SE 39 G 69 16.09 Fair and Breezy CLR 31.7 -1.1 12% 30 75.92 1007.0
04 12:53 S 35 G 57 16.09 Fair and Breezy CLR 31.1 0.6 14% 29 75.92 1007.0
04 10:53 SE 41 G 54 16.09 Fair and Breezy CLR 29.4 1.7 29.4 22.2 17% 28 75.97 1007.6
04 09:53 S 30 G 46 16.09 Fair CLR 28.9 2.2 18% 27 75.95 1007.2
04 08:53 S 20 G 37 16.09 Fair CLR 27.2 1.1 18% 26 75.92 1007.1
04 07:53 S 26 G 35 16.09 Fair CLR 23.3 3.3 27% 75.9 1007.2
04 06:53 SW 22 G 39 16.09 Fair CLR 22.2 3.3 29% 75.84 1006.6
04 05:53 S 22 G 35 16.09 Fair CLR 23.3 1.7 24% 75.79 1005.6
04 04:53 S 19 G 41 16.09 Fair CLR 22.8 2.8 25.6 22.2 27% 75.74 1004.9
04 03:53 S 22 16.09 Fair CLR 22.8 3.9 29% 75.74 1004.8
04 02:53 S 26 G 46 16.09 Fair CLR 22.8 3.3 28% 75.74 1004.7
04 01:53 S 33 G 50 16.09 Fair and Breezy CLR 23.3 2.8 26% 75.72 1004.6
04 00:53 S 22 16.09 Fair CLR 23.9 1.7 23% 25 75.74 1004.9
03 23:53 S 24 G 46 16.09 Fair CLR 25 1.7 22% 25 75.74 1005.1
03 22:53 S 28 G 46 16.09 Fair CLR 25.6 1.1 31.1 25.6 20% 25 75.72 1004.8
03 21:53 S 30 G 44 16.09 Fair CLR 26.7 -1.7 15% 26 75.74 1005.1
03 20:53 S 26 G 44 16.09 Fair CLR 27.2 -2.2 14% 26 75.72 1004.8
03 19:53 SE 24 G 41 16.09 Fair CLR 27.8 -2.2 14% 26 75.72 1004.8
03 18:53 S 26 G 43 16.09 Fair CLR 28.9 -2.8 12% 27 75.72 1004.7
03 17:53 S 20 G 48 16.09 Fair CLR 30 -2.8 12% 28 75.74 1005.2
03 16:53 S 31 G 50 16.09 Fair CLR 31.1 -2.8 31.7 26.1 11% 29 75.77 1005.4
03 15:53 S 30 G 52 16.09 Fair CLR 31.1 -2.2 11% 29 75.82 1006.0
03 14:53 SE 30 G 57 16.09 Fair CLR 31.1 -2.8 11% 29 75.82 1005.9
03 13:53 S 28 G 52 16.09 Fair CLR 31.1 -2.8 11% 29 75.9 1006.7
03 12:53 S 33 G 52 16.09 Fair and Breezy CLR 30 -1.7 13% 28 75.92 1007.3
03 11:53 S 37 G 50 16.09 Fair and Breezy CLR 27.8 -1.7 14% 26 76 1008.5
03 10:53 S 30 16.09 Fair CLR 26.7 -0.6 26.7 19.4 17% 26 76.05 1009.1
03 09:53 SW 28 G 37 16.09 Fair CLR 25 0 19% 25 76.05 1009.3
03 08:53 SW 13 G 31 16.09 Fair CLR 22.8 0.6 23% 76.05 1009.5
03 07:53 SW 9 16.09 Fair CLR 21.7 0.6 25% 76.02 1009.1
03 06:53 S 13 G 31 16.09 Fair CLR 20.6 0 25% 76 1008.6
03 05:53 S 15 16.09 Fair CLR 19.4 -0.6 26% 75.97 1008.3
03 04:53 S 9 16.09 Fair CLR 20 -1.7 25 19.4 23% 75.97 1008.0
03 03:53 Vrbl 6 16.09 Fair CLR 20 -2.8 21% 75.95 1007.8
03 02:53 S 26 16.09 Fair CLR 22.8 -3.9 17% 75.95 1007.7
03 01:53 S 30 G 46 16.09 Fair CLR 23.3 -4.4 15% 75.97 1007.9
03 00:53 S 17 16.09 Fair CLR 23.3 -6.7 13% 75.97 1008.2
02 23:53 S 22 G 39 16.09 Fair CLR 23.9 -7.8 11% 24 75.97 1008.1
02 22:53 S 26 G 39 16.09 Fair CLR 25 -9.4 30.6 25 9% 24 75.95 1007.8
02 21:53 S 19 G 39 16.09 Fair CLR 26.1 -12.2 7% 25 75.95 1007.8
02 20:53 S 20 G 37 16.09 Fair CLR 26.1 -13.9 6% 25 75.97 1008.0
02 19:53 S 31 G 56 16.09 Fair CLR 27.8 -16.1 5% 26 75.92 1007.4
02 18:53 SE 33 G 46 16.09 Fair and Breezy CLR 28.3 -16.1 4% 27 75.9 1007.3
02 17:53 S 35 G 48 16.09 Fair and Breezy CLR 30 -14.4 5% 28 75.92 1007.4
02 16:53 S 39 G 54 16.09 Fair and Breezy CLR 30.6 -13.3 31.7 27.8 5% 29 75.95 1007.5
02 15:53 S 37 G 56 16.09 Fair and Breezy CLR 31.1 -13.3 5% 29 75.97 1007.9
02 14:53 S 37 G 57 16.09 Fair and Breezy CLR 31.1 -14.4 4% 29 76.02 1008.5
02 13:53 S 37 G 69 16.09 Fair and Breezy CLR 30.6 -14.4 4% 29 76.02 1008.7
02 12:53 S 37 G 67 16.09 Fair and Breezy CLR 29.4 -13.9 5% 28 76.1 1009.6
02 11:53 S 41 G 57 16.09 Fair and Breezy CLR 29.4 -12.2 6% 28 76.15 1010.5
02 10:53 S 30 G 52 16.09 Fair CLR 28.3 -12.2 28.3 21.7 6% 27 76.2 1011.0
02 09:53 S 31 G 48 16.09 Fair CLR 26.7 -11.7 7% 26 76.17 1010.7
02 08:53 S 28 G 43 16.09 Fair CLR 25.6 -10 9% 25 76.17 1011.0
02 07:53 S 26 G 43 16.09 Fair CLR 23.9 -10.6 9% 24 76.15 1010.5
02 06:53 S 26 16.09 Fair CLR 22.8 -10.6 10% 76.1 1009.7
02 05:53 SE 15 16.09 Fair CLR 21.7 -10 11% 76.02 1008.8
02 04:53 SE 26 G 41 16.09 Fair CLR 22.8 -10.6 25 22.8 10% 75.95 1007.7
02 03:53 SE 20 G 41 16.09 Fair CLR 23.3 -8.3 11% 75.95 1007.5
Date Time (pdt) Wind (kph) Vis. (km) Weather Sky Cond. Air Dwpt Max. Min. Relative Humidity Wind Chill (°C) Heat Index (°C) altimeter (cm) sea level (mb) 1 hr 3 hr 6 hr
6 hour
Temperature (ºC) Pressure Precipitation (cm)